CHINASAT 12 (ZX 12)

Last updated on Sat Jun 29 2024 00:02:39 GMT+0000 (Coordinated Universal Time)

1 39017U 12067A 24180.47948885 -.00000203 00000+0 00000+0 0 9998 2 39017 0.0185 90.4775 0002862 4.9206 81.7432 1.00269254 42300

Satellite not in orbit

CHINASAT 12 (ZX 12)